North Canton, OH

4:17 PM EST on February 20, 2017 (GMT -0500)
Akron-Canton Regional

Weather History for KCAK - July, 2014

Change the Weather History Date:

Monday, July 7, 2014

  Actual Average Record
Temperature  
Mean Temperature 75 °F 72 °F  
Max Temperature 80 °F 82 °F 101 °F (2012)
Min Temperature 69 °F 62 °F 47 °F (1990)
Degree Days  
Heating Degree Days 0 0  
Month to date heating degree days 0 0  
Since 1 June heating degree days 15 49  
Since 1 July heating degree days 0 0  
Cooling Degree Days 10 7  
Month to date cooling degree days 48 49  
Year to date cooling degree days 307 226  
Since 1 June cooling degree days 231 184  
Growing Degree Days 24 (Base 50)    
Moisture  
Dew Point 65 °F    
Average Humidity 73    
Maximum Humidity 84    
Minimum Humidity 61    
Precipitation  
Precipitation 0.46 in 0.13 in 1.98 in (2003)
Month to date precipitation 0.62 0.91  
Year to date precipitation 26.53 20.47  
Snow  
Snow 0.00 in 0.00 in - ()
Month to date snowfall 0.0 0.0  
Since 1 June snowfall 0.0 0.0  
Since 1 July snowfall 0.0 0.0  
Snow Depth 0.00 in    
Sea Level Pressure  
Sea Level Pressure 29.81 in    
Wind  
Wind Speed 12 mph (SW)    
Max Wind Speed 24 mph    
Max Gust Speed 32 mph    
Visibility 9 miles    
Events Rain , Thunderstorm    
T = Trace of Precipitation, MM = Missing Value Source: NWS Daily Summary

Daily Weather History Graph

Daily Weather History Graph

Search for Another Location

Airport or City:

Trip Planner

Search our weather history database for the weather conditions in past years. The results will help you decide how hot, cold, wet, or windy it might be!

Date:

Astronomy

Jul. 07, 2014 Rise Set
Actual Time 6:01 AM EDT 9:00 PM EDT
Civil Twilight 5:27 AM EDT 9:33 PM EDT
Nautical Twilight 4:45 AM EDT 10:14 PM EDT
Astronomical Twilight 3:56 AM EDT 11:03 PM EDT
Moon 4:00 PM EDT (7/7) 1:54 AM EDT (7/7)
Length of Visible Light 16h 05m
Length of Day
14h 58m
Waxing Gibbous, 72% of the Moon is Illuminated
Jul 7
Waxing Gibbous
Jul 12
Full
Jul 18
Last Quarter
Jul 26
New
Aug 3
First Quarter

Hourly Weather History & Observations

Time (EDT) Temp. Dew Point Humidity Pressure Visibility Wind Dir Wind Speed Gust Speed Precip Events Conditions
12:51 AM 71.6 °F 60.8 °F 69% 29.89 in 10.0 mi SSW 10.4 mph - N/A   Partly Cloudy
1:51 AM 71.1 °F 59.0 °F 66% 29.86 in 10.0 mi SW 11.5 mph - N/A   Partly Cloudy
2:51 AM 71.1 °F 59.0 °F 66% 29.84 in 10.0 mi SW 8.1 mph - N/A   Mostly Cloudy
3:51 AM 71.1 °F 57.9 °F 63% 29.81 in 10.0 mi SW 9.2 mph - N/A   Clear
4:51 AM 69.1 °F 59.0 °F 70% 29.81 in 10.0 mi SW 11.5 mph - N/A   Clear
5:51 AM 69.1 °F 59.0 °F 70% 29.82 in 10.0 mi SW 10.4 mph - N/A   Clear
6:51 AM 70.0 °F 59.0 °F 68% 29.81 in 10.0 mi SW 12.7 mph - N/A   Mostly Cloudy
7:51 AM 70.0 °F 60.1 °F 71% 29.82 in 10.0 mi SW 9.2 mph - N/A   Mostly Cloudy
8:51 AM 75.0 °F 62.1 °F 64% 29.81 in 10.0 mi SW 12.7 mph 18.4 mph N/A   Mostly Cloudy
9:45 AM 75.2 °F 62.6 °F 65% 29.82 in 1.8 mi SW 15.0 mph 23.0 mph N/A   Haze
9:51 AM 75.0 °F 63.0 °F 66% 29.80 in 10.0 mi WSW 15.0 mph 23.0 mph N/A   Mostly Cloudy
10:51 AM 75.9 °F 63.0 °F 64% 29.80 in 10.0 mi SW 18.4 mph 25.3 mph N/A   Mostly Cloudy
11:51 AM 78.1 °F 64.0 °F 62% 29.79 in 10.0 mi SW 16.1 mph 25.3 mph N/A   Overcast
12:41 PM 73.4 °F 66.2 °F 78% 29.84 in 5.0 mi WSW 18.4 mph 27.6 mph 0.01 in Rain , Thunderstorm Thunderstorms and Rain
12:51 PM 73.0 °F 66.9 °F 81% 29.81 in 7.0 mi SW 11.5 mph - 0.02 in Rain , Thunderstorm Light Thunderstorms and Rain
1:26 PM 75.2 °F 68.0 °F 78% 29.82 in 10.0 mi SW 12.7 mph - 0.00 in   Overcast
1:51 PM 75.9 °F 68.0 °F 76% 29.79 in 10.0 mi SW 13.8 mph - 0.00 in   Overcast
2:36 PM 75.2 °F 69.8 °F 83% 29.80 in 7.0 mi SW 10.4 mph - 0.00 in Rain , Thunderstorm Light Thunderstorms and Rain
2:51 PM 75.0 °F 69.1 °F 82% 29.78 in 7.0 mi WSW 6.9 mph - 0.01 in Rain , Thunderstorm Light Thunderstorms and Rain
3:26 PM 73.4 °F 69.8 °F 88% 29.82 in 1.5 mi WSW 12.7 mph 18.4 mph 0.01 in Rain , Thunderstorm Light Thunderstorms and Rain
3:51 PM 73.0 °F 69.1 °F 87% 29.79 in 5.0 mi SW 8.1 mph - 0.43 in   Overcast
4:51 PM 75.0 °F 69.1 °F 82% 29.78 in 6.0 mi WSW 8.1 mph - N/A   Haze
5:51 PM 79.0 °F 70.0 °F 74% 29.77 in 7.0 mi WSW 10.4 mph - N/A   Mostly Cloudy
6:51 PM 78.1 °F 66.9 °F 68% 29.76 in 8.0 mi SW 23.0 mph 32.2 mph N/A   Mostly Cloudy
7:51 PM 77.0 °F 68.0 °F 74% 29.78 in 10.0 mi SW 15.0 mph - N/A   Scattered Clouds
8:51 PM 75.0 °F 66.9 °F 76% 29.78 in 9.0 mi SW 12.7 mph - N/A   Mostly Cloudy
9:51 PM 73.0 °F 66.0 °F 79% 29.80 in 10.0 mi SW 12.7 mph - N/A   Mostly Cloudy
10:51 PM 73.0 °F 66.0 °F 79% 29.83 in 10.0 mi SSW 8.1 mph - N/A   Mostly Cloudy
11:51 PM 72.0 °F 66.0 °F 81% 29.82 in 10.0 mi SSW 10.4 mph - N/A   Overcast